CW1852 Weather Reports


Display with metric or nautical units.
time (UTC)temp
F
wind
direction
speed
MPH
gust
MPH
rain 1hr
in
rain 24hr
in
rain mn
in
humidity
%
barometer
mb
20260903035225 60 53 1.0 3.0 0.00 0.00 0.00 95 1018.8
20260903034202 60 53 0.0 3.0 0.00 0.00 0.00 95 1018.9
20260903033203 60 53 1.0 4.0 0.00 0.00 0.00 95 1018.9
20260903032203 60 53 0.0 2.0 0.00 0.00 0.00 95 1018.9
20260903031223 60 53 0.0 1.0 0.00 0.00 0.00 95 1018.9
20260903030224 60 53 0.0 2.0 0.00 0.00 0.00 94 1019.0
20260903025224 60 53 0.0 1.0 0.00 0.00 0.00 94 1019.1
20260903024224 60 53 0.0 1.0 0.00 0.00 0.00 94 1019.4
20260903023202 60 53 1.0 2.0 0.00 0.00 0.00 94 1019.4
20260903022203 60 53 0.0 3.0 0.00 0.00 0.00 94 1019.3
20260903021202 60 53 0.0 3.0 0.00 0.00 0.00 94 1019.4
20260903020203 60 53 1.0 2.0 0.00 0.00 0.00 93 1019.3
20260903015203 60 53 0.0 1.0 0.00 0.00 0.00 93 1019.2
20260903014202 60 53 0.0 2.0 0.00 0.00 0.00 93 1019.3
20260903013203 60 53 0.0 3.0 0.00 0.00 0.00 93 1019.3
20260903012203 60 53 0.0 4.0 0.00 0.00 0.00 93 1019.1
20260903011203 60 52 1.0 4.0 0.00 0.00 0.00 93 1019.1
20260903010203 60 53 0.0 2.0 0.00 0.00 0.00 93 1019.3
20260903005203 60 53 0.0 3.0 0.00 0.00 0.00 93 1019.3
20260903004224 60 53 1.0 3.0 0.00 0.00 0.00 92 1019.5
20260903003203 60 53 1.0 4.0 0.00 0.00 0.00 92 1019.5
20260903002203 60 53 0.0 3.0 0.00 0.00 0.00 92 1019.6
20260903001203 61 53 0.0 1.0 0.00 0.00 0.00 92 1019.9
20260903000204 61 53 0.0 4.0 0.00 0.00 0.00 92 1019.8
20260902235204 61 52 0.0 4.0 0.00 0.00 0.00 92 1019.9
20260902234203 61 53 0.0 2.0 0.00 0.00 0.00 92 1019.7
20260902233203 61 53 0.0 2.0 0.00 0.00 0.00 92 1019.7
20260902232203 61 53 0.0 4.0 0.00 0.00 0.00 92 1019.8
20260902231203 61 53 2.0 4.0 0.00 0.00 0.00 92 1019.9
20260902230203 61 52 1.0 5.0 0.00 0.00 0.00 92 1020.0
20260902225202 61 52 0.0 5.0 0.00 0.00 0.00 91 1020.2
20260902224203 61 52 0.0 2.0 0.00 0.00 0.00 91 1020.4
20260902223224 61 52 0.0 3.0 0.00 0.00 0.00 91 1020.4
20260902222202 61 52 0.0 3.0 0.00 0.00 0.00 90 1020.4
20260902221203 61 52 1.0 5.0 0.00 0.00 0.00 90 1020.4
20260902220202 61 50 0.0 3.0 0.00 0.00 0.00 88 1020.4
20260902215203 62 50 0.0 2.0 0.00 0.00 0.00 89 1020.4
20260902214202 62 50 1.0 2.0 0.00 0.00 0.00 88 1020.5
20260902213203 63 50 0.0 4.0 0.00 0.00 0.00 87 1020.6
20260902212203 62 50 0.0 2.0 0.00 0.00 0.00 87 1020.6
20260902211202 62 50 1.0 3.0 0.00 0.00 0.00 86 1020.6
20260902210203 62 50 0.0 4.0 0.00 0.00 0.00 88 1020.8
20260902205202 62 48 2.0 5.0 0.00 0.00 0.00 86 1020.9
20260902204203 64 58 1.0 4.0 0.00 0.00 0.00 83 1020.7
20260902203203 65 58 1.0 3.0 0.00 0.00 0.00 83 1020.8
20260902202203 62 57 1.0 8.0 0.00 0.00 0.00 87 1021.1
20260902195203 63 49 1.0 4.0 0.00 0.00 0.00 84 1021.3
20260902194203 64 48 1.0 5.0 0.00 0.00 0.00 84 1021.4
20260902193203 65 48 1.0 3.0 0.00 0.00 0.00 82 1021.5
20260902192202 65 47 1.0 3.0 0.00 0.00 0.00 82 1021.5
20260902190202 66 47 2.0 4.0 0.00 0.00 0.00 80 1021.3
20260902185224 66 47 1.0 3.0 0.00 0.00 0.00 80 1021.4
20260902184203 66 47 1.0 3.0 0.00 0.00 0.00 80 1021.3
20260902183203 65 47 1.0 3.0 0.00 0.00 0.00 83 1021.4
20260902182203 64 51 1.0 5.0 0.00 0.00 0.00 83 1021.5
20260902181203 65 54 1.0 4.0 0.00 0.00 0.00 81 1021.4
20260902180223 66 51 2.0 6.0 0.00 0.00 0.00 79 1021.5
20260902175203 66 87 2.0 7.0 0.00 0.00 0.00 80 1021.6
20260902174203 66 342 2.0 8.0 0.00 0.00 0.00 79 1021.5
20260902173203 66 48 3.0 10.0 0.00 0.00 0.00 77 1021.3
20260902172203 66 58 2.0 7.0 0.00 0.00 0.00 78 1021.5
20260902171202 67 68 1.0 5.0 0.00 0.00 0.00 76 1021.7
20260902170224 69 85 1.0 5.0 0.00 0.00 0.00 72 1021.6
20260902165203 69 151 2.0 6.0 0.00 0.00 0.00 73 1021.8
20260902164202 69 127 2.0 8.0 0.00 0.00 0.00 72 1021.7
20260902163203 68 37 1.0 9.0 0.00 0.00 0.00 72 1021.9
20260902162203 69 47 1.0 8.0 0.00 0.00 0.00 72 1022.0
20260902161202 67 98 3.0 9.0 0.00 0.00 0.00 74 1022.1
20260902160224 69 55 2.0 7.0 0.00 0.00 0.00 73 1022.2
20260902155204 67 48 1.0 5.0 0.00 0.00 0.00 75 1022.2
20260902154224 68 43 2.0 7.0 0.00 0.00 0.00 73 1022.1
20260902153203 68 60 2.0 5.0 0.00 0.00 0.00 75 1022.2
20260902152203 67 49 2.0 8.0 0.00 0.00 0.00 75 1022.2
20260902151203 67 59 1.0 7.0 0.00 0.00 0.00 75 1022.1
20260902150203 67 245 2.0 8.0 0.00 0.00 0.00 75 1022.1
20260902145203 68 62 1.0 8.0 0.00 0.00 0.00 75 1022.0
20260902144226 67 58 2.0 7.0 0.00 0.00 0.00 74 1021.9
20260902143203 68 67 2.0 7.0 0.00 0.00 0.00 75 1021.8
20260902142202 66 65 2.0 5.0 0.00 0.00 0.00 77 1021.7
20260902141204 66 66 2.0 5.0 0.00 0.00 0.00 76 1021.7
20260902140202 66 40 2.0 6.0 0.00 0.00 0.00 77 1021.6
20260902135203 66 76 2.0 4.0 0.00 0.00 0.00 77 1021.8
20260902134203 65 69 2.0 7.0 0.00 0.00 0.00 78 1021.8
20260902133203 64 62 2.0 7.0 0.00 0.00 0.00 79 1021.6
20260902132203 63 81 2.0 8.0 0.00 0.00 0.00 82 1021.5
20260902131202 63 72 4.0 10.0 0.00 0.00 0.00 83 1021.5
20260902130224 62 72 1.0 11.0 0.00 0.00 0.00 84 1021.4
20260902125203 62 62 4.0 9.0 0.00 0.00 0.00 83 1021.4
20260902124223 62 76 3.0 8.0 0.00 0.00 0.00 83 1021.4
20260902123203 62 65 2.0 9.0 0.00 0.00 0.00 84 1021.4
20260902122203 61 68 3.0 8.0 0.00 0.00 0.00 85 1021.4
20260902121203 61 63 1.0 8.0 0.00 0.00 0.00 86 1021.7
20260902120203 61 66 1.0 7.0 0.00 0.00 0.00 87 1021.6
20260902115203 60 63 1.0 4.0 0.00 0.00 0.00 88 1021.5
20260902114203 60 63 1.0 4.0 0.00 0.00 0.00 89 1021.4
20260902113202 60 63 1.0 7.0 0.00 0.00 0.00 89 1021.3
20260902112203 59 63 2.0 8.0 0.00 0.00 0.00 91 1021.0
20260902111202 59 57 1.0 4.0 0.00 0.00 0.00 92 1021.0
20260902110224 58 57 3.0 8.0 0.00 0.00 0.00 93 1020.9
20260902105202 57 57 1.0 4.0 0.00 0.00 0.00 94 1020.9
20260902104203 57 57 0.0 3.0 0.00 0.00 0.00 94 1020.9
20260902103202 57 57 1.0 4.0 0.00 0.00 0.00 95 1020.9
20260902102203 57 57 1.0 3.0 0.00 0.00 0.00 95 1020.8
20260902101202 56 57 0.0 0.0 0.00 0.00 0.00 96 1020.9
20260902100203 56 57 0.0 0.0 0.00 0.00 0.00 96 1020.9
20260902095202 56 57 0.0 0.0 0.00 0.00 0.00 95 1020.8
20260902094203 56 57 0.0 0.0 0.00 0.00 0.00 95 1020.9
20260902093203 57 57 0.0 0.0 0.00 0.00 0.00 95 1020.8
20260902092202 58 57 0.0 1.0 0.00 0.00 0.00 95 1020.7
20260902091203 57 57 0.0 0.0 0.00 0.00 0.00 95 1020.7
20260902090202 57 57 0.0 0.0 0.00 0.00 0.00 95 1020.7
20260902085203 58 57 0.0 0.0 0.00 0.00 0.00 95 1020.7
20260902084203 58 57 0.0 0.0 0.00 0.00 0.00 95 1020.8
20260902083203 59 57 0.0 1.0 0.00 0.00 0.00 94 1020.7
20260902082203 60 57 1.0 3.0 0.00 0.00 0.00 94 1020.7
20260902081203 60 57 2.0 4.0 0.00 0.00 0.00 94 1020.7
20260902080203 60 57 2.0 5.0 0.00 0.00 0.00 94 1020.6
20260902075202 60 57 2.0 3.0 0.00 0.00 0.00 95 1020.7
20260902074203 61 57 0.0 4.0 0.00 0.00 0.00 94 1020.6
20260902073202 61 57 1.0 5.0 0.00 0.00 0.00 95 1020.6
20260902072224 61 57 2.0 6.0 0.00 0.00 0.00 95 1020.5
20260902071202 61 57 1.0 4.0 0.00 0.00 0.00 95 1020.6
20260902070203 61 57 1.0 5.0 0.00 0.00 0.00 95 1020.6
20260902065203 61 57 2.0 5.0 0.00 0.00 0.00 94 1020.5
20260902064203 61 57 1.0 3.0 0.00 0.00 0.00 94 1020.4
20260902063203 61 57 0.0 4.0 0.00 0.00 0.00 94 1020.4
20260902062202 61 57 1.0 4.0 0.00 0.00 0.00 94 1020.3
20260902061225 62 57 1.0 4.0 0.00 0.00 0.00 94 1020.1
20260902060225 62 57 0.0 2.0 0.00 0.00 0.00 94 1019.9
20260902055202 62 57 0.0 1.0 0.00 0.00 0.00 94 1019.9
20260902054203 62 57 0.0 2.0 0.00 0.00 0.00 95 1019.8
20260902053202 62 57 1.0 3.0 0.00 0.00 0.00 95 1019.6
20260902052204 62 57 0.0 3.0 0.00 0.00 0.00 95 1019.6
20260902051224 62 57 0.0 2.0 0.00 0.00 0.00 95 1019.5
20260902050203 62 57 1.0 2.0 0.00 0.00 0.00 95 1019.5
20260902045224 62 57 0.0 1.0 0.00 0.00 0.00 95 1019.4
20260902044203 62 57 0.0 2.0 0.00 0.00 0.00 95 1019.4
20260902043202 62 57 1.0 2.0 0.00 0.00 0.00 95 1019.5
20260902042203 62 57 0.0 2.0 0.00 0.00 0.00 95 1019.4
20260902041202 62 57 0.0 1.0 0.00 0.00 0.00 95 1019.3
20260902040203 62 57 1.0 2.0 0.00 0.00 0.00 95 1019.2